Regional Weather Roundup
Issued by NWS Grand Forks, ND

Home | Current Version | Previous Version | Graphics & Text | Print | Product List | Glossary On
Versions: 1 2 3 4 5 6 7 8 9 10 11 12 13 14 15 16 17 18 19 20 21 22 23 24 25 26 27 28 29 30 31 32 33 34 35 36 37 38 39 40 41 42 43 44 45 46 47 48 49 50
000
ASUS43 KFGF 220710
RWRFGF
PRAIRIE TO PINES  WEATHER ROUNDUP
NATIONAL WEATHER SERVICE EASTERN NORTH DAKOTA/GRAND FORKS ND
200 AM CDT TUE APR 22 2014

 **SATELLITE DATA USED TO AUGMENT SKY COVER AT AUTOMATED STATIONS**
 *****  WEATHER ACROSS EASTERN NORTH DAKOTA  *****

CITY           SKY/WX    TMP DP  RH WIND       PRES   REMARKS
GRAND FORKS    MOCLDY    33  31  92 CALM      30.13S
GRAND FRKS AFB NOT AVBL
GRAND FRKS NWS   N/A     32 N/A N/A MISG        N/A
DEVILS LAKE    PTCLDY    34  27  75 CALM      30.11S
FARGO          CLEAR     36  29  75 CALM      30.12F
WAHPETON ARPT  SUNNY     32  25  74 W3        30.13S
$$

 ***** WEATHER ACROSS CENTRAL AND WESTERN NORTH DAKOTA  *****

CITY           SKY/WX    TMP DP  RH WIND       PRES   REMARKS
BISMARCK       CLEAR     36  28  73 CALM      30.12S
MINOT          MOCLDY    37  31  78 S6        30.09S
JAMESTOWN      CLEAR     32  27  81 CALM      30.11S
MINOT AFB      CLEAR     33  32  96 S3        30.08F
GARRISON         N/A     35  28  75 N3        30.09F
WILLISTON      MOCLDY    47  30  51 E3        30.07R
DICKINSON      MOCLDY    40  29  64 SE10      30.06F
HETTINGER      MOCLDY    44  31  60 SE10      30.08F
$$

 *****  OTHER AIRPORT OBSERVATIONS IN OUR AREA  *****

CITY           SKY/WX    TMP DP  RH WIND       PRES   REMARKS
WALHALLA       FAIR      32  32 100 SW5       30.13R
GRAFTON AIRPOR FAIR      34  34 100 S3        30.13S FOG
VALLEY CITY AR FAIR      34  32  93 CALM      30.12S
CANDO          FAIR      34  32  93 CALM      30.11F
CAVALIER APRT  FAIR      32  30  93 CALM      30.13S
GWINNER        SUNNY     36  30  80 W3        30.14S
SHEYENNE NWR     N/A     31  31  99 CALM      29.95S
ROLLA          FAIR      30  30 100 CALM      30.11S
 ***** THE ABOVE OBSERVATIONS ARE NON NWS ARE NOT QUALITY
       CONTROLLED AND MAY MIS-REPORT RAIN FOR SNOW...
$$

  *****  WEATHER ACROSS NORTHERN MINNESOTA  *****

CITY           SKY/WX    TMP DP  RH WIND       PRES   REMARKS
FLAG ISLAND    CLEAR     30  27  86 CALM      30.11S
WARROAD        CLEAR     30  27  86 CALM      30.12S
ROSEAU         CLEAR     30  27  86 CALM      30.13R
HALLOCK        CLOUDY    36  32  87 CALM      30.12S
THF RVR FALLS  CLEAR     34  28  80 CALM      30.13S
BAUDETTE       CLEAR     29  26  89 CALM      30.11S
WASKISH        CLEAR     27  25  93 CALM      30.11R
CROOKSTON      CLEAR     36  32  87 CALM      30.14S
$$
  *****  WEATHER ACROSS CENTRAL AND WEST MINNESOTA  *****

CITY           SKY/WX    TMP DP  RH WIND       PRES   REMARKS
FOSSTON        CLEAR     27  19  74 CALM      30.13S
BEMIDJI        CLEAR     26  23  89 W3        30.11F
PARK RAPIDS    CLEAR     30  27  88 NW5       30.11R
ELBOW LAKE     FAIR      38  33  82 CALM      30.13S
WADENA         CLEAR     34  28  80 W8        30.12R
DETROIT LAKES  CLEAR     37  36  93 CALM      30.13S
MOORHEAD       CLEAR     37  34  87 CALM      30.14S
FERGUS FALLS   CLEAR     37  28  70 NE3       30.11S
MORRIS MN      CLEAR     34  30  86 CALM      30.12F
STAPLES        CLEAR     36  30  80 NW6       30.11S
$$
  *****  WEATHER ELSEWHERE ACROSS MINNESOTA  *****

CITY           SKY/WX    TMP DP  RH WIND       PRES   REMARKS
DULUTH         CLOUDY    36  25  64 NW12      30.04R
INTRNTL FALLS  CLOUDY    34  25  69 NW7       30.07F
ELY            CLOUDY    36  27  69 NW6       30.02S
CLOQUET        CLEAR     34  25  69 NW7       30.06S
WHEATON        CLEAR     39  34  81 SW3       30.16S
BRAINERD       CLEAR     41  28  60 N6        30.11R
HIBBING        MOCLDY    34  25  69 NW8       30.06S
ALEXANDRIA     CLEAR     35  30  82 W3        30.13S
SAINT CLOUD    CLEAR     40  30  67 NW7       30.10S
MINNEAPOLIS    CLEAR     42  29  59 NW7       30.09S
$$

  *****  WEATHER ACROSS SOUTH DAKOTA  *****

CITY           SKY/WX    TMP DP  RH WIND       PRES   REMARKS
SIOUX FALLS    CLEAR     36  30  79 CALM      30.15S
BROOKINGS      NOT AVBL
WATERTOWN      CLEAR     34  28  79 CALM      30.14R
HURON          CLEAR     40  30  67 SE5       30.14S
SISSETON         N/A     34  30  85 W5        30.13S
ABERDEEN       CLEAR     31  25  78 CALM      30.14F
MITCHELL       CLEAR     44  31  60 SE6       30.15S
PIERRE         CLEAR     38  28  67 E3        30.11F
MOBRIDGE       CLEAR     40  29  64 SE7       30.09F
RAPID CITY     CLEAR     46  28  49 S3        30.07F
$$

  *****  SOME WEATHER IN NEARBY STATES *****

CITY           SKY/WX    TMP DP  RH WIND       PRES   REMARKS
GLASGOW MT     MOCLDY    49  25  39 E14       29.95F
GREAT FALLS MT CLEAR     45  26  47 CALM      29.83F
CHEYENNE WY    PTCLDY    45  32  60 W5        30.13F
SCOTTSBLUFF NE CLEAR     46  29  51 E12       30.08F
OMAHA NE       CLEAR     49  34  56 NW5       30.16R
DES MOINES IA  CLEAR     52  31  44 N17G26    30.09R
DAVENPORT IA   CLEAR     48  39  71 NW10      29.95R
CHICAGO IL     PTCLDY    58  44  60 N14       29.82R
EAU CLAIRE WI  CLEAR     40  28  62 N7        30.04R
LA CROSSE WI   CLEAR     45  30  55 N15G24    30.02R
$$

  *****  SOME NATIONAL WEATHER *****

CITY           SKY/WX    TMP DP  RH WIND       PRES   REMARKS
LA GUARDIA NY  MOCLDY    51  42  71 SW7       29.81F
RALEIGH NC     MOCLDY    50  39  66 CALM      29.87F
ATLANTA GA     PTCLDY    61  49  64 CALM      29.94F
NEW ORLEANS LA PTCLDY    63  61  93 S8        29.98F
OKLAHOMA CITY  CLEAR     59  55  87 NW8       30.06S
ALBUQUERQUE NM PTCLDY    64  36  35 E20       30.17S
SALT LAKE CITY MOCLDY    68  31  25 S17       29.86F
LOS ANGELES CA MOCLDY    59  53  80 CALM      29.99F
BOISE ID       CLOUDY    60  33  36 SE7       29.75F
SEATTLE WA     LGT RAIN  47  44  90 N5        29.85F
$$

*** WEATHER ACROSS MANITOBA...SASKATCHEWAN AND ONTARIO ***
                ***ONTARIO***

CITY           SKY/WX    TMP DP  RH WIND       PRES   REMARKS
GERALDTON      FLURRIES  30  28  93 N8        29.88R WCI  23
THUNDER BAY    MOCLDY    37  28  70 NW9       29.95R
SIOUX LOOKOUT  FLURRIES  32  28  86 NW10      30.04R WCI  24
TORONTO        SLEET     52  41  66 SW3       29.63F
BIG TROUT LK   CLEAR     23  23 100 NW6       30.03R WCI  16
PICKLE LAKE    NOT AVBL
DRYDEN         CLOUDY    34  27  75 NW6       30.06R
KENORA         CLEAR     30  27  86 NW7       30.10S WCI  23
$$
                *** MANITOBA***

CITY           SKY/WX    TMP DP  RH WIND       PRES   REMARKS
BRANDON        CLEAR     32  30  93 N3        30.12R
DAUPHIN        CLEAR     36  32  87 SW8       30.10R
ISLAND LAKE    PTCLDY    28  28 100 SE2       30.05S
PILOT MOUND      N/A     34  30  86 N1          N/A
THE PAS        CLEAR     32  27  80 SW5         N/A
THOMPSON       PTCLDY    25  19  80 CALM      30.02S
WINNIPEG       PTCLDY    36  30  80 SE5       30.14R
LYNN LAKE      LGT RAIN  39  34  81 W6        29.99S
CHURCHILL      CLEAR     16  12  86 S8        30.02S WCI   5
GILLAM         MOCLDY    27  21  80 S3        30.03S
$$
                ***SASKATCHEWAN***

CITY           SKY/WX    TMP DP  RH WIND       PRES   REMARKS
ESTEVAN        CLEAR     36  32  87 SE5       30.09R
KINDERSLEY     MOCLDY    43  30  61 SE18      29.89F
LLOYDMINSTER   MOCLDY    41  28  60 S10       29.88S
PRINCE ALBERT  MOCLDY    36  34  93 E7        30.00F
REGINA         CLEAR     39  32  75 SE13      30.05F
YORKTON        CLEAR     32  32 100 S5        30.08F
N. BATTLEFORD  PTCLDY    46  27  46 S15       29.94F
LA RONGE       CLEAR     28  27  93 CALM      29.97S
SASKATOON      CLEAR     37  30  75 S8        29.99F
SWIFT CURRENT  CLEAR     41  30  65 SE10      29.92F
$$
NOTE: THESE ARE AUTOMATED STATIONS WITH LIMITED QUALITY CONTROL
      "FAIR" INDICATES FEW OR NO CLOUDS BELOW 12,000 FEET WITH NO
      SIGNIFICANT WEATHER AND/OR OBSTRUCTIONS TO VISIBILITY.
      SKY/WX - SKY CONDITION AND SIGNIFICANT WEATHER.
      TMP - AIR TEMPERATURE.    DP   - DEWPOINT TEMPERATURE.
      RH  - RELATIVE HUMIDITY.  PRES - PRESSURE.
      HX  - HEAT INDEX.         WCI  - WIND CHILL INDEX.
$



USA.gov is the U.S. government's official web portal to all federal, state and local government web resources and services.